Dauntless Aviation
Greetings, Guest! To participate, [sign up for a free account] or [log in]
Airports Europe United Kingdom
EGLC
LCY

London City

London, UNITED KINGDOM

Airport Info
Edit

Location

Latitude / Longitude: 51°30'18"N / 0°3'12"E
  51°30.3'N / 0°3.21'E
  51.5050 / 0.0535

Nearby radio navigation aids

LCY CITY NDB on field.

Runway Information

Runway 10 /28

Dimensions: 4948 x 98 ft.
Surface: ASP
 
Runway 10
Runway 28
Latitude: 51.505528 51.504922
Longitude: 0.045753 0.064953
Elevation: 16 ft. 16 ft.
Runway true heading: 91.1 271.1
 

Instrument Procedures

  Control Zone and Control Area Chart
  Aircraft Parking/Docking Chart
  Aerodrome Chart

STARs (Standard Terminal Arrivals)

  STAR via SPEAR (Northwest)
  STAR via ALKIN (South)
  STAR via SPEAR (East)
  STAR via SPEAR (West)
  STAR via SPEAR (Alternate Holding at LOGAN and ALKIN)

IAPs (Instrument Approach Procedures)

  LOC/DME/NDB (L) Rwy 27 (Aircraft CAT A/B/C)
  Visual Approach Profile Rwy 27
  ILS (5.5°GP) /DME/NDB (L) Rwy 27 (Aircraft CAT A/B/C)
  Visual Approach Profile Rwy 09
  LOC/DME/NDB (L) Rwy 09
  ATC Surveillance Minimum Altitude Chart
  ILS (5.5°GP) /DME/NDB (L) Rwy 09 (Aircraft CAT A/B/C)

Departure Procedures

  SID DOVER/LYDD
  SID CLACTON
  SID SOUTHAMPTON
  SID BROOKMANS PARK/COMPTON
Satellite photo at:
Airport distance calculator
From:
Weather Reports

METAR

EGLC

EGLC 260250Z AUTO 22009KT 9999 SCT035/// 13/07 Q1021
EGLL
18.9nm SW
EGLL 260250Z 21009KT 9999 FEW037 12/08 Q1021
EGSS
23.5nm N
EGSS 260250Z 22010KT 9999 BKN033 11/08 Q1020
EGKK
23.8nm S
EGKK 260250Z 23005KT 9999 BKN032 13/08 Q1022
EGMC
24.4nm NE
EGMC 260250Z 21010KT 9999 BKN034 12/08 Q1021
EGGW
26.8nm NW
EGGW 260250Z 20006KT 160V240 CAVOK 10/08 Q1020

TAF

EGWU
17.8nm W
TAF EGWU 251946Z 2521/2615 22006KT 9999 BKN040 PROB30 TEMPO 2609/2615 SCT020
EGLL
18.9nm SW
TAF EGLL 252257Z 2600/2706 22007KT 9999 FEW020 SCT040 PROB30 TEMPO 2703/2706 7000 BKN010
EGSS
23.5nm N
TAF EGSS 252257Z 2600/2706 23009KT 9999 SCT035
EGKK
23.8nm S
TAF EGKK 252257Z 2600/2706 22007KT 9999 SCT035 PROB30 TEMPO 2700/2706 BKN014
EGMC
24.4nm NE
TAF EGMC 252258Z 2600/2609 22008KT 9999 SCT040
EGGW
26.8nm NW
TAF EGGW 252257Z 2600/2624 22008KT 9999 SCT035
Safelog

 

Dauntless Aviation

© 2007-2014 Dauntless Aviation, all rights reserved
Information provided via PilotNav comes from a variety of official and unofficial data sources. As errors are possible, do not use PilotNav for primary flight planning purposes. Verify any information that you receive via PilotNav with current and canonical charts and other official documents. The material in this database is subject to database copyrights held by Dauntless Aviation and may not be copied without the express permission of Dauntless Aviation - licenses for use of part of all of this data are available for purchase; enquire via the Dauntless Aviation helpdesk. A number of mechanisms and markers exist in the database to protect against and identify infringement / copyright. Automated queries against this website are stictly prohibited, and all activity is logged and analyzed.